Time,TemperatureF,DewpointF,PressureIn,WindDirection,WindDirectionDegrees,WindSpeedMPH,WindSpeedGustMPH,Humidity,HourlyPrecipIn,Conditions,Clouds,dailyrainin,SolarRadiationWatts/m^2,SoftwareType,DateUTC
2013-01-28 00:22:00,55.0,52.0,-100.00,South,187,6.0,13.0,90,0.00,,,0.02,1.000000,,2013-01-28 06:22:00,
2013-01-28 00:32:00,55.0,52.0,-100.00,South,187,6.0,13.0,90,0.00,,,0.02,1.000000,,2013-01-28 06:32:00,
2013-01-28 00:42:00,55.0,52.0,-100.00,South,187,6.0,13.0,90,0.00,,,0.02,1.000000,,2013-01-28 06:42:00,
2013-01-28 00:52:00,55.0,52.0,-100.00,South,187,6.0,13.0,90,0.00,,,0.02,1.000000,,2013-01-28 06:52:00,
2013-01-28 01:21:00,56.0,52.0,-100.00,South,191,8.0,12.0,87,0.00,,,0.02,1.000000,,2013-01-28 07:21:00,
2013-01-28 01:32:00,56.0,52.0,-100.00,South,191,8.0,12.0,87,0.00,,,0.02,1.000000,,2013-01-28 07:32:00,
2013-01-28 01:42:00,56.0,52.0,-100.00,South,191,8.0,12.0,87,0.00,,,0.02,1.000000,,2013-01-28 07:42:00,
2013-01-28 01:51:00,56.0,52.0,-100.00,South,191,8.0,12.0,87,0.00,,,0.02,1.000000,,2013-01-28 07:51:00,
2013-01-28 02:21:00,57.0,52.0,-100.00,SSW,200,10.0,16.0,84,0.00,,,0.02,1.000000,,2013-01-28 08:21:00,
2013-01-28 02:32:00,57.0,52.0,-100.00,SSW,200,10.0,16.0,84,0.00,,,0.02,1.000000,,2013-01-28 08:32:00,
2013-01-28 02:42:00,57.0,52.0,-100.00,SSW,200,10.0,16.0,84,0.00,,,0.02,1.000000,,2013-01-28 08:42:00,
2013-01-28 02:52:00,57.0,52.0,-100.00,SSW,200,10.0,16.0,84,0.00,,,0.02,1.000000,,2013-01-28 08:52:00,
2013-01-28 03:11:00,58.0,52.0,-100.00,South,190,10.0,19.0,81,0.00,,,0.02,1.000000,,2013-01-28 09:11:00,
2013-01-28 03:22:00,58.0,52.0,-100.00,South,190,10.0,19.0,81,0.00,,,0.02,1.000000,,2013-01-28 09:22:00,
2013-01-28 03:32:00,58.0,52.0,-100.00,South,190,10.0,19.0,81,0.00,,,0.02,1.000000,,2013-01-28 09:32:00,
2013-01-28 03:42:00,58.0,52.0,-100.00,South,190,10.0,19.0,81,0.00,,,0.02,1.000000,,2013-01-28 09:42:00,
2013-01-28 03:51:00,58.0,52.0,-100.00,South,190,10.0,19.0,81,0.00,,,0.02,1.000000,,2013-01-28 09:51:00,
2013-01-28 04:21:00,59.0,53.0,-100.00,SSW,200,12.0,20.0,81,0.00,,,0.02,1.000000,,2013-01-28 10:21:00,
2013-01-28 04:32:00,59.0,53.0,-100.00,SSW,200,12.0,20.0,81,0.00,,,0.02,1.000000,,2013-01-28 10:32:00,
2013-01-28 04:42:00,59.0,53.0,-100.00,SSW,200,12.0,20.0,81,0.00,,,0.02,1.000000,,2013-01-28 10:42:00,
2013-01-28 04:51:00,59.0,53.0,-100.00,SSW,200,12.0,20.0,81,0.00,,,0.02,1.000000,,2013-01-28 10:51:00,
2013-01-28 05:11:00,59.0,54.0,-100.00,SSW,207,8.0,18.0,85,0.00,,,0.02,1.000000,,2013-01-28 11:11:00,
2013-01-28 05:22:00,59.0,54.0,-100.00,SSW,207,8.0,18.0,85,0.00,,,0.02,1.000000,,2013-01-28 11:22:00,
2013-01-28 05:32:00,59.0,54.0,-100.00,SSW,207,8.0,18.0,85,0.00,,,0.02,1.000000,,2013-01-28 11:32:00,
2013-01-28 05:42:00,59.0,54.0,-100.00,SSW,207,8.0,18.0,85,0.00,,,0.02,1.000000,,2013-01-28 11:42:00,
2013-01-28 05:52:00,59.0,54.0,-100.00,SSW,207,8.0,18.0,85,0.00,,,0.02,1.000000,,2013-01-28 11:52:00,
2013-01-28 06:12:00,59.0,55.0,-100.00,SSW,204,10.0,16.0,88,0.00,,,0.02,1.000000,,2013-01-28 12:12:00,
2013-01-28 06:23:00,59.0,55.0,-100.00,SSW,204,10.0,16.0,88,0.00,,,0.02,1.000000,,2013-01-28 12:23:00,
2013-01-28 06:33:00,59.0,55.0,-100.00,SSW,204,10.0,16.0,88,0.00,,,0.02,1.000000,,2013-01-28 12:33:00,
2013-01-28 06:42:00,59.0,55.0,-100.00,SSW,204,10.0,16.0,88,0.00,,,0.02,1.000000,,2013-01-28 12:42:00,
2013-01-28 06:52:00,59.0,55.0,-100.00,SSW,204,10.0,16.0,88,0.00,,,0.02,1.000000,,2013-01-28 12:52:00,
2013-01-28 07:23:00,58.0,56.0,-100.00,SSW,194,9.0,16.0,92,0.00,,,0.02,1.000000,,2013-01-28 13:23:00,
2013-01-28 07:33:00,58.0,56.0,-100.00,SSW,194,9.0,16.0,92,0.00,,,0.02,1.000000,,2013-01-28 13:33:00,
2013-01-28 07:42:00,58.0,56.0,-100.00,SSW,194,9.0,16.0,92,0.00,,,0.02,1.000000,,2013-01-28 13:42:00,
2013-01-28 07:52:00,58.0,56.0,-100.00,SSW,194,9.0,16.0,92,0.00,,,0.02,1.000000,,2013-01-28 13:52:00,
2013-01-28 08:12:00,58.0,57.0,-100.00,SSW,201,7.0,14.0,96,0.00,,,0.02,3.000000,,2013-01-28 14:12:00,
2013-01-28 08:22:00,58.0,57.0,-100.00,SSW,201,7.0,14.0,96,0.00,,,0.02,3.000000,,2013-01-28 14:22:00,
2013-01-28 08:33:00,58.0,57.0,-100.00,SSW,201,7.0,14.0,96,0.00,,,0.02,3.000000,,2013-01-28 14:33:00,
2013-01-28 08:43:00,58.0,57.0,-100.00,SSW,201,7.0,14.0,96,0.00,,,0.02,3.000000,,2013-01-28 14:43:00,
2013-01-28 08:52:00,58.0,57.0,-100.00,SSW,201,7.0,14.0,96,0.00,,,0.02,3.000000,,2013-01-28 14:52:00,
2013-01-28 09:23:00,58.0,57.0,-100.00,SSW,200,8.0,13.0,98,0.01,,,0.03,17.000000,,2013-01-28 15:23:00,
2013-01-28 09:33:00,58.0,57.0,-100.00,SSW,200,8.0,13.0,98,0.01,,,0.03,17.000000,,2013-01-28 15:33:00,
2013-01-28 09:43:00,58.0,57.0,-100.00,SSW,200,8.0,13.0,98,0.01,,,0.03,17.000000,,2013-01-28 15:43:00,
2013-01-28 09:52:00,58.0,57.0,-100.00,SSW,200,8.0,13.0,98,0.01,,,0.03,17.000000,,2013-01-28 15:52:00,
2013-01-28 10:22:00,60.0,59.0,-100.00,SSW,201,8.0,15.0,97,0.00,,,0.03,44.000000,,2013-01-28 16:22:00,
2013-01-28 10:32:00,60.0,59.0,-100.00,SSW,201,8.0,15.0,97,0.00,,,0.03,44.000000,,2013-01-28 16:32:00,
2013-01-28 10:43:00,60.0,59.0,-100.00,SSW,201,8.0,15.0,97,0.00,,,0.03,44.000000,,2013-01-28 16:43:00,
2013-01-28 10:52:00,60.0,59.0,-100.00,SSW,201,8.0,15.0,97,0.00,,,0.03,44.000000,,2013-01-28 16:52:00,
2013-01-28 11:12:00,61.0,59.0,-100.00,SSW,203,6.0,17.0,92,0.00,,,0.03,75.000000,,2013-01-28 17:12:00,
2013-01-28 11:23:00,61.0,59.0,-100.00,SSW,203,6.0,17.0,92,0.00,,,0.03,75.000000,,2013-01-28 17:23:00,
2013-01-28 11:32:00,61.0,59.0,-100.00,SSW,203,6.0,17.0,92,0.00,,,0.03,75.000000,,2013-01-28 17:32:00,
2013-01-28 11:42:00,61.0,59.0,-100.00,SSW,203,6.0,17.0,92,0.00,,,0.03,75.000000,,2013-01-28 17:42:00,
2013-01-28 11:52:00,61.0,59.0,-100.00,SSW,203,6.0,17.0,92,0.00,,,0.03,75.000000,,2013-01-28 17:52:00,
2013-01-28 12:23:00,64.0,59.0,-100.00,South,190,9.0,16.0,85,0.00,,,0.01,230.000000,,2013-01-28 18:23:00,
2013-01-28 12:33:00,64.0,59.0,-100.00,South,190,9.0,16.0,85,0.00,,,0.01,230.000000,,2013-01-28 18:33:00,
2013-01-28 12:42:00,64.0,59.0,-100.00,South,190,9.0,16.0,85,0.00,,,0.01,230.000000,,2013-01-28 18:42:00,
2013-01-28 12:52:00,64.0,59.0,-100.00,South,190,9.0,16.0,85,0.00,,,0.01,230.000000,,2013-01-28 18:52:00,
2013-01-28 13:22:00,69.0,60.0,-100.00,SSW,211,12.0,18.0,73,0.00,,,0.01,442.000000,,2013-01-28 19:22:00,
2013-01-28 13:33:00,69.0,60.0,-100.00,SSW,211,12.0,18.0,73,0.00,,,0.01,442.000000,,2013-01-28 19:33:00,
2013-01-28 13:42:00,69.0,60.0,-100.00,SSW,211,12.0,18.0,73,0.00,,,0.01,442.000000,,2013-01-28 19:42:00,
2013-01-28 13:52:00,69.0,60.0,-100.00,SSW,211,12.0,18.0,73,0.00,,,0.01,442.000000,,2013-01-28 19:52:00,
2013-01-28 14:22:00,70.0,61.0,-100.00,SSW,199,11.0,19.0,72,0.00,,,0.01,555.000000,,2013-01-28 20:22:00,
2013-01-28 14:33:00,70.0,61.0,-100.00,SSW,199,11.0,19.0,72,0.00,,,0.01,555.000000,,2013-01-28 20:33:00,
2013-01-28 14:42:00,70.0,61.0,-100.00,SSW,199,11.0,19.0,72,0.00,,,0.01,555.000000,,2013-01-28 20:42:00,
2013-01-28 14:52:00,70.0,61.0,-100.00,SSW,199,11.0,19.0,72,0.00,,,0.01,555.000000,,2013-01-28 20:52:00,
2013-01-28 15:22:00,68.0,60.0,-100.00,South,182,11.0,18.0,76,0.00,,,0.01,368.000000,,2013-01-28 21:22:00,
2013-01-28 15:33:00,68.0,60.0,-100.00,South,182,11.0,18.0,76,0.00,,,0.01,368.000000,,2013-01-28 21:33:00,
2013-01-28 15:43:00,68.0,60.0,-100.00,South,182,11.0,18.0,76,0.00,,,0.01,368.000000,,2013-01-28 21:43:00,
2013-01-28 15:52:00,68.0,60.0,-100.00,South,182,11.0,18.0,76,0.00,,,0.01,368.000000,,2013-01-28 21:52:00,
2013-01-28 16:23:00,66.0,59.0,-100.00,SSW,195,9.0,19.0,79,0.00,,,0.01,135.000000,,2013-01-28 22:23:00,
2013-01-28 16:32:00,66.0,59.0,-100.00,SSW,195,9.0,19.0,79,0.00,,,0.01,135.000000,,2013-01-28 22:32:00,
2013-01-28 16:42:00,66.0,59.0,-100.00,SSW,195,9.0,19.0,79,0.00,,,0.01,135.000000,,2013-01-28 22:42:00,
2013-01-28 16:52:00,66.0,59.0,-100.00,SSW,195,9.0,19.0,79,0.00,,,0.01,135.000000,,2013-01-28 22:52:00,
2013-01-28 17:12:00,66.0,61.0,-100.00,South,186,8.0,17.0,83,0.00,,,0.01,76.000000,,2013-01-28 23:12:00,
2013-01-28 17:22:00,66.0,61.0,-100.00,South,186,8.0,17.0,83,0.00,,,0.01,76.000000,,2013-01-28 23:22:00,
2013-01-28 17:32:00,66.0,61.0,-100.00,South,186,8.0,17.0,83,0.00,,,0.01,76.000000,,2013-01-28 23:32:00,
2013-01-28 17:42:00,66.0,61.0,-100.00,South,186,8.0,17.0,83,0.00,,,0.01,76.000000,,2013-01-28 23:42:00,
2013-01-28 17:52:00,66.0,61.0,-100.00,South,186,8.0,17.0,83,0.00,,,0.01,76.000000,,2013-01-28 23:52:00,
2013-01-28 18:12:00,64.0,60.0,-100.00,South,171,6.0,13.0,86,0.00,,,0.01,15.000000,,2013-01-29 00:12:00,
2013-01-28 18:22:00,64.0,60.0,-100.00,South,171,6.0,13.0,86,0.00,,,0.01,15.000000,,2013-01-29 00:22:00,
2013-01-28 18:32:00,64.0,60.0,-100.00,South,171,6.0,13.0,86,0.00,,,0.01,15.000000,,2013-01-29 00:32:00,
2013-01-28 18:42:00,64.0,60.0,-100.00,South,171,6.0,13.0,86,0.00,,,0.01,15.000000,,2013-01-29 00:42:00,
2013-01-28 18:52:00,64.0,60.0,-100.00,South,171,6.0,13.0,86,0.00,,,0.01,15.000000,,2013-01-29 00:52:00,
2013-01-28 19:12:00,65.0,61.0,-100.00,South,174,8.0,11.0,86,0.00,,,0.01,1.000000,,2013-01-29 01:12:00,
2013-01-28 19:23:00,65.0,61.0,-100.00,South,174,8.0,11.0,86,0.00,,,0.01,1.000000,,2013-01-29 01:23:00,
2013-01-28 19:32:00,65.0,61.0,-100.00,South,174,8.0,11.0,86,0.00,,,0.01,1.000000,,2013-01-29 01:32:00,
2013-01-28 19:42:00,65.0,61.0,-100.00,South,174,8.0,11.0,86,0.00,,,0.01,1.000000,,2013-01-29 01:42:00,
2013-01-28 19:52:00,65.0,61.0,-100.00,South,174,8.0,11.0,86,0.00,,,0.01,1.000000,,2013-01-29 01:52:00,
2013-01-28 20:12:00,66.0,60.0,-100.00,South,188,11.0,17.0,80,0.00,,,0.01,1.000000,,2013-01-29 02:12:00,
2013-01-28 20:22:00,66.0,60.0,-100.00,South,188,11.0,17.0,80,0.00,,,0.01,1.000000,,2013-01-29 02:22:00,
2013-01-28 20:33:00,66.0,60.0,-100.00,South,188,11.0,17.0,80,0.00,,,0.01,1.000000,,2013-01-29 02:33:00,
2013-01-28 20:42:00,66.0,60.0,-100.00,South,188,11.0,17.0,80,0.00,,,0.01,1.000000,,2013-01-29 02:42:00,
2013-01-28 20:52:00,66.0,60.0,-100.00,South,188,11.0,17.0,80,0.00,,,0.01,1.000000,,2013-01-29 02:52:00,
2013-01-28 21:22:00,64.0,59.0,-100.00,South,191,11.0,22.0,83,0.00,,,0.01,1.000000,,2013-01-29 03:22:00,
2013-01-28 21:32:00,64.0,59.0,-100.00,South,191,11.0,22.0,83,0.00,,,0.01,1.000000,,2013-01-29 03:32:00,
2013-01-28 21:42:00,64.0,59.0,-100.00,South,191,11.0,22.0,83,0.00,,,0.01,1.000000,,2013-01-29 03:42:00,
2013-01-28 21:52:00,64.0,59.0,-100.00,South,191,11.0,22.0,83,0.00,,,0.01,1.000000,,2013-01-29 03:52:00,
2013-01-28 22:11:00,63.0,59.0,-100.00,SSW,194,12.0,22.0,86,0.00,,,0.01,1.000000,,2013-01-29 04:11:00,
2013-01-28 22:22:00,63.0,59.0,-100.00,SSW,194,12.0,22.0,86,0.00,,,0.01,1.000000,,2013-01-29 04:22:00,
2013-01-28 22:32:00,63.0,59.0,-100.00,SSW,194,12.0,22.0,86,0.00,,,0.01,1.000000,,2013-01-29 04:32:00,
2013-01-28 22:42:00,63.0,59.0,-100.00,SSW,194,12.0,22.0,86,0.00,,,0.01,1.000000,,2013-01-29 04:42:00,
2013-01-28 22:51:00,63.0,59.0,-100.00,SSW,194,12.0,22.0,86,0.00,,,0.01,1.000000,,2013-01-29 04:51:00,
2013-01-28 23:21:00,63.0,59.0,-100.00,SSW,196,13.0,22.0,88,0.00,,,0.01,1.000000,,2013-01-29 05:21:00,
2013-01-28 23:32:00,63.0,59.0,-100.00,SSW,196,13.0,22.0,88,0.00,,,0.01,1.000000,,2013-01-29 05:32:00,
2013-01-28 23:42:00,63.0,59.0,-100.00,SSW,196,13.0,22.0,88,0.00,,,0.01,1.000000,,2013-01-29 05:42:00,
2013-01-28 23:52:00,63.0,59.0,-100.00,SSW,196,13.0,22.0,88,0.00,,,0.01,1.000000,,2013-01-29 05:52:00,